Change the Weather History Date:

Friday, November 23, 2012

  Actual Average Record
Temperature  
Mean Temperature 45 °F -  
Max Temperature 58 °F 29 °F 58 °F (2012)
Min Temperature 32 °F 16 °F 5 °F (1997)
Degree Days  
Heating Degree Days 20    
Moisture  
Dew Point 31 °F    
Average Humidity 58    
Maximum Humidity 81    
Minimum Humidity 26    
Precipitation  
Precipitation 0.00 in -2.94 in - ()
Sea Level Pressure  
Sea Level Pressure 29.77 in    
Wind  
Wind Speed 5 mph ()    
Max Wind Speed 15 mph    
Max Gust Speed 21 mph    
Visibility 15.0 miles    
Events      
Averages and records for this station are not official NWS values.
T = Trace of Precipitation, MM = Missing Value Source: Averaged Metar Reports

Daily Weather History Graph

Daily Weather History Graph

Search for Another Location

Airport or City:

Trip Planner

Search our weather history database for the weather conditions in past years. The results will help you decide how hot, cold, wet, or windy it might be!

Date:

Astronomy

Nov. 23, 2012 Rise Set
Actual Time 6:39 AM EST 3:29 PM EST
Civil Twilight 6:03 AM EST 4:04 PM EST
Nautical Twilight 5:24 AM EST 4:43 PM EST
Astronomical Twilight 4:47 AM EST 5:21 PM EST
Moon 12:59 PM EST (11/23) 1:33 AM EST (11/23)
Length of Visible Light 10h 00m
Length of Day
8h 49m
Waxing Gibbous, 79% of the Moon is Illuminated
Nov 23
Waxing Gibbous
Nov 28
Full
Dec 6
Last Quarter
Dec 13
New
Dec 20
First Quarter

Hourly Weather History & Observations

Time (EST) Temp. Windchill Dew Point Humidity Pressure Visibility Wind Dir Wind Speed Gust Speed Precip Events Conditions
12:00 AM 44.6 °F 39.7 °F 28.4 °F 53% 29.87 in 15.0 mi WNW 9.2 mph - N/A   Mostly Cloudy
1:00 AM 44 °F - 28 °F 41% 29.87 in 15 mi NW 6.9 mph - -   Mostly Cloudy
1:00 AM 44.6 °F 40.7 °F 28.4 °F 53% 29.87 in 15.0 mi NW 6.9 mph - N/A   Mostly Cloudy
2:00 AM 44.6 °F 40.7 °F 28.4 °F 53% 29.86 in 15.0 mi WNW 6.9 mph - N/A   Scattered Clouds
3:00 AM 41.0 °F 38.0 °F 28.4 °F 61% 29.86 in 15.0 mi WNW 4.6 mph - N/A   Scattered Clouds
4:00 AM 42.8 °F 38.0 °F 28.4 °F 57% 29.85 in 15.0 mi WNW 8.1 mph - N/A   Scattered Clouds
5:00 AM 41.0 °F 36.4 °F 26.6 °F 57% 29.84 in 15.0 mi WNW 6.9 mph - N/A   Partly Cloudy
6:00 AM 41.0 °F 35.8 °F 28.4 °F 61% 29.83 in 15.0 mi NW 8.1 mph - N/A   Mostly Cloudy
7:00 AM 35 °F - 27 °F 63% 29.83 in 15 mi Calm Calm - -   Scattered Clouds
7:00 AM 35.6 °F - 26.6 °F 70% 29.83 in 15.0 mi Calm Calm - N/A   Mostly Cloudy
8:00 AM 39.2 °F - 28.4 °F 65% 29.83 in 15.0 mi Calm Calm - N/A   Mostly Cloudy
9:00 AM 44.6 °F - 30.2 °F 57% 29.81 in 15.0 mi Calm Calm - N/A   Scattered Clouds
10:00 AM 51.8 °F - 33.8 °F 50% 29.79 in 15.0 mi ESE 3.5 mph - N/A   Scattered Clouds
11:00 AM 57.2 °F - 33.8 °F 41% 29.75 in 15.0 mi West 8.1 mph - N/A   Partly Cloudy
1:00 PM 58 °F - 33 °F 26% 29.72 in 15 mi West 11.5 mph - -   Scattered Clouds
1:00 PM 59.0 °F - 32.0 °F 36% 29.72 in 15.0 mi West 11.5 mph 18.4 mph N/A   Mostly Cloudy
2:00 PM 55.4 °F - 33.8 °F 44% 29.72 in 15.0 mi West 15.0 mph 20.7 mph N/A   Mostly Cloudy
3:00 PM 51.8 °F - 33.8 °F 50% 29.73 in 15.0 mi SSW 4.6 mph - N/A   Mostly Cloudy
4:00 PM 46.4 °F 45.2 °F 33.8 °F 62% 29.72 in 15.0 mi East 3.5 mph - N/A   Mostly Cloudy
5:00 PM 41.0 °F - 33.8 °F 76% 29.72 in 15.0 mi Calm Calm - N/A   Mostly Cloudy
6:00 PM 44.6 °F 43.1 °F 32.0 °F 61% 29.71 in 15.0 mi SSW 3.5 mph - N/A   Mostly Cloudy
7:00 PM 42 °F - 32 °F 59% 29.70 in 15 mi South 3.5 mph - -   Mostly Cloudy
7:00 PM 42.8 °F - 32.0 °F 66% 29.70 in 15.0 mi South 2.3 mph - N/A   Mostly Cloudy
8:00 PM 44.6 °F 40.2 °F 33.8 °F 66% 29.69 in 15.0 mi WSW 8.1 mph - N/A   Mostly Cloudy
9:00 PM 42.8 °F - 33.8 °F 70% 29.67 in 15.0 mi Calm Calm - N/A   Scattered Clouds
10:00 PM 42.8 °F - 37.4 °F 81% 29.65 in 15.0 mi East 2.3 mph - N/A   Scattered Clouds
11:00 PM 42.8 °F 39.3 °F 37.4 °F 81% 29.64 in 15.0 mi WNW 5.8 mph - N/A   Partly Cloudy